Regional Weather Roundup
Issued by NWS

Home | Current Version | Previous Version | Text Only | Print | Product List | Glossary On
Versions: 1 2 3 4 5 6 7 8 9 10 11 12 13 14 15 16 17 18 19 20 21 22 23 24 25 26 27
000
ASUS46 KSEW 270610
RWRWA

WASHINGTON REGIONAL WEATHER ROUNDUP
NATIONAL WEATHER SERVICE SEATTLE WA
1100 PM PDT THU APR 26 2018

NOTE:"FAIR" INDICATES FEW OR NO CLOUDS BELOW 12,000 FEET WITH NO
SIGNIFICANT WEATHER AND/OR OBSTRUCTIONS TO VISIBILITY.

WAZ507-509-555>559-270700-
SEATTLE, TACOMA, EVERETT, AND VICINITY

CITY           SKY/WX    TMP DP  RH WIND       PRES   REMARKS
EVERETT        CLEAR     58  42  55 NW8       29.89S
6HR MIN TEMP:  58; 6HR MAX TEMP:  74;

BOEING FIELD   CLEAR     65  43  44 CALM      29.87S
6HR MIN TEMP:  64; 6HR MAX TEMP:  78;

RENTON         CLEAR     62  48  60 N6        29.86R
6HR MIN TEMP:  62; 6HR MAX TEMP:  81;

SEATAC AIRPORT CLEAR     64  44  48 SW5       29.88R
6HR MIN TEMP:  64; 6HR MAX TEMP:  81;

JBLM-MCCHORD   CLEAR     55  53  94 SW7       29.91R
6HR MIN TEMP:  55; 6HR MAX TEMP:  82;

PUYALLUP       FAIR      57  52  82 W5        29.90R
BREMERTON      CLEAR     50  47  89 S3        29.90R
6HR MIN TEMP:  50; 6HR MAX TEMP:  81;

JBLM-FT LEWIS  CLEAR     53  53  98 W6        29.91R
6HR MIN TEMP:  53; 6HR MAX TEMP:  82;

TACOMA NARROWS CLEAR     53  49  86 W6        29.90R
6HR MIN TEMP:  53; 6HR MAX TEMP:  79;

$$

WAZ001-503-506-510-514-515-270700-
NORTH INTERIOR

CITY           SKY/WX    TMP DP  RH WIND       PRES   REMARKS
BELLINGHAM     CLEAR     52  48  86 CALM      29.88S
6HR MIN TEMP:  52; 6HR MAX TEMP:  74;

FRIDAY HARBOR  CLEAR     49  42  77 CALM      29.90S
6HR MIN TEMP:  49; 6HR MAX TEMP:  73;

EASTSOUND      CLEAR     54  43  66 CALM      29.88S
PORT ANGELES   MOCLDY    48  47  96 NW8       29.92S FOG
6HR MIN TEMP:  48; 6HR MAX TEMP:  75;

EDIZ HOOK      CLOUDY    48  47  96 W15G22    29.91F
6HR MIN TEMP:  48; 6HR MAX TEMP:  67;

PORT TOWNSEND  FAIR      54  46  76 NW7       29.90R
NAS WHIDBEY    CLEAR     51  47  86 W5        29.94S
6HR MIN TEMP:  51; 6HR MAX TEMP:  66;

ARLINGTON      CLEAR     57  44  62 NW10      29.88S
6HR MIN TEMP:  57; 6HR MAX TEMP:  77;

BURLINGTON     PTCLDY    52  43  71 CALM      29.89S
$$

WAZ020-022-039-040-504-511-512-270700-
SOUTHWEST INTERIOR

CITY           SKY/WX    TMP DP  RH WIND       PRES   REMARKS
SHELTON        CLOUDY    52  48  86 SW20G26   29.90R
6HR MIN TEMP:  52; 6HR MAX TEMP:  81;

OLYMPIA        CLEAR     51  47  86 S8        29.91R
6HR MIN TEMP:  51; 6HR MAX TEMP:  83;

CHEHALIS       CLOUDY    54  50  87 W5        29.94S
KELSO          CLOUDY    53  48  83 NW7       29.95F
6HR MIN TEMP:  53; 6HR MAX TEMP:  70;

VANCOUVER      CLOUDY    57  51  80 NW7       29.89R
6HR MIN TEMP:  57; 6HR MAX TEMP:  85;

SCAPPOOSE, OR  MOCLDY    56  49  77 N9        29.87F
6HR MIN TEMP:  56; 6HR MAX TEMP:  83;

PORTLAND, OR   CLOUDY    57  49  74 NW3       29.90R
6HR MIN TEMP:  57; 6HR MAX TEMP:  86;

$$

WAZ021-516-517-270700-
WASHINGTON COAST

CITY           SKY/WX    TMP DP  RH WIND       PRES   REMARKS
FORKS          CLOUDY    50  48  93 CALM      29.95S
6HR MIN TEMP:  50; 6HR MAX TEMP:  54;

HOQUIAM        CLOUDY    52  49  89 S8        29.96S
6HR MIN TEMP:  52; 6HR MAX TEMP:  55;

ASTORIA, OR    CLOUDY    52  48  86 NW3       29.95F
6HR MIN TEMP:  51; 6HR MAX TEMP:  55;

$$

WAZ019-023-024-040-567>569-270700-
CASCADE MOUNTAINS AND COLUMBIA GORGE

CITY           SKY/WX    TMP DP  RH WIND       PRES   REMARKS
STAMPEDE PASS  NOT AVBL
TROUTDALE, OR  CLOUDY    62  51  67 W7        29.87S
6HR MIN TEMP:  62; 6HR MAX TEMP:  84;

HOOD RIVER, OR PTCLDY    55  45  67 CALM      29.89S
THE DALLES, OR CLEAR     60  44  55 CALM      29.88S
6HR MIN TEMP:  59; 6HR MAX TEMP:  86;

$$

WAZ026-027-041>044-520-521-270700-
EAST SLOPES

CITY           SKY/WX    TMP DP  RH WIND       PRES   REMARKS
OMAK           CLEAR     52  37  56 NW6       29.97S
6HR MIN TEMP:  52; 6HR MAX TEMP:  78;

WENATCHEE      CLEAR     60  36  40 W7        29.95S
6HR MIN TEMP:  60; 6HR MAX TEMP:  78;

ELLENSBURG     CLEAR     56  37  49 N7        29.96F
6HR MIN TEMP:  55; 6HR MAX TEMP:  80; 6HR PCP: TRACE;

YAKIMA         CLEAR     60  39  45 W9        29.93F
6HR MIN TEMP:  59; 6HR MAX TEMP:  84;

SUNNYSIDE ARPT CLEAR     53  40  59 CALM      29.90S
6HR MIN TEMP:  52; 6HR MAX TEMP:  79;

YAKIMA TC      FAIR      56  33  41 NE3       29.92F
6HR MIN TEMP:  56; 6HR MAX TEMP:  80;

$$

WAZ028-034-035-270700-
COLUMBIA BASIN

CITY           SKY/WX    TMP DP  RH WIND       PRES   REMARKS
EPHRATA        CLEAR     64  35  34 NW7       29.93F
6HR MIN TEMP:  64; 6HR MAX TEMP:  81;

MOSES LAKE     CLEAR     54  40  59 N8        29.94S
6HR MIN TEMP:  54; 6HR MAX TEMP:  82;

PASCO          CLEAR     53  46  77 N6        29.88F
6HR MIN TEMP:  52; 6HR MAX TEMP:  85;

RICHLAND ARPT  CLEAR     57  41  54 NW5       29.88F
6HR MIN TEMP:  57; 6HR MAX TEMP:  85;

HERMISTON, OR  CLEAR     57  48  72 S7        29.86F
6HR MIN TEMP:  54; 6HR MAX TEMP:  83;

$$

WAZ036>038-270700-
NORTHEAST WASHINGTON

CITY           SKY/WX    TMP DP  RH WIND       PRES   REMARKS
SPOKANE GEIGER CLEAR     62  33  33 NE3       29.97F
6HR MIN TEMP:  61; 6HR MAX TEMP:  76;

SPOKANE FELTS  CLEAR     53  40  61 CALM      29.97F
6HR MIN TEMP:  52; 6HR MAX TEMP:  80;

FAIRCHILD AFB  CLEAR     57  32  38 NE5       29.97F
6HR MIN TEMP:  57; 6HR MAX TEMP:  73; 6HR PCP: TRACE;

COEURDALENE,ID NOT AVBL
DEER PARK      CLEAR     50  36  58 CALM      29.97F
6HR MIN TEMP:  46; 6HR MAX TEMP:  76;

$$

WAZ029>033-270700-
SOUTHEAST WASHINGTON

CITY           SKY/WX    TMP DP  RH WIND       PRES   REMARKS
PULLMAN        CLEAR     50  38  63 CALM      29.98F
6HR MIN TEMP:  50; 6HR MAX TEMP:  76;

LEWISTON, ID   CLEAR     64  43  46 NW3       29.92S
6HR MIN TEMP:  61; 6HR MAX TEMP:  83;

WALLA WALLA    CLEAR     62  49  62 E6        29.89F
6HR MIN TEMP:  60; 6HR MAX TEMP:  80;

PENDLETON, OR  CLEAR     57  47  69 SE8       29.90F
6HR MIN TEMP:  56; 6HR MAX TEMP:  80;

$$




USA.gov is the U.S. government's official web portal to all federal, state and local government web resources and services.